This demonstration page uses our WeatherBlox Daily Observations layout. Learn more.

Left ArrowRight Arrow

47.50024, -111.30081

Hourly Observations for January 3, 2018

Temp ( °F °C ) Dew Point ( °F °C ) Humidity (%) Winds ( mph kmh ) Pressure ( in mb ) Visibility ( mi km ) Precip ( " mm )
12:53 am 00:53 Clear 29 -1.7 17 -8.3 61 61 S 15 24 30.36 1028 10 16 0.00 0.00
1:53 am 01:53 Clear 30 -1.1 20 -6.7 66 66 SSW 24 39 30.32 1027 10 16 0.00 0.00
2:53 am 02:53 Clear 30 -1.1 20 -6.7 66 66 SW 25 41 30.30 1026 10 16 0.00 0.00
3:53 am 03:53 Clear 31 -0.6 20 -6.7 64 64 SSW 21 33 30.30 1026 10 16 0.00 0.00
4:53 am 04:53 Clear 31 -0.6 21 -6.1 67 67 SSW 24 39 30.29 1026 10 16 0.00 0.00
5:53 am 05:53 Cloudy 32 0 21 -6.1 64 64 SSW 20 31 30.29 1026 10 16 0.00 0.00
6:53 am 06:53 Cloudy 33 0.6 21 -6.1 61 61 SSW 21 33 30.28 1026 10 16 0.00 0.00
7:53 am 07:53 Cloudy 32 0 23 -5 69 69 SSW 22 35 30.28 1025 10 16 0.00 0.00
8:53 am 08:53 Cloudy 34 1.1 22 -5.6 61 61 SSW 21 33 30.27 1025 10 16 0.00 0.00
9:53 am 09:53 Cloudy 33 0.6 23 -5 66 66 SSW 21 33 30.28 1025 10 16 0.00 0.00
10:53 am 10:53 Cloudy 35 1.7 24 -4.4 64 64 SSW 18 30 30.28 1025 10 16 0.00 0.00
11:53 am 11:53 Cloudy 35 1.7 27 -2.8 72 72 SSW 18 30 30.27 1025 10 16 0.00 0.00
12:53 pm 12:53 Mostly Cloudy 36 2.2 27 -2.8 70 70 SSW 22 35 30.24 1024 10 16 0.00 0.00
1:53 pm 13:53 Cloudy 36 2.2 27 -2.8 70 70 SSW 21 33 30.23 1024 10 16 0.00 0.00
2:53 pm 14:53 Cloudy 36 2.2 27 -2.8 70 70 SSW 15 24 30.24 1024 10 16 0.00 0.00
3:53 pm 15:53 Mostly Sunny 36 2.2 27 -2.8 70 70 SSW 16 26 30.25 1024 10 16 0.00 0.00
4:53 pm 16:53 Clear 34 1.1 26 -3.3 73 73 SSW 17 28 30.26 1025 10 16 0.00 0.00
5:53 pm 17:53 Clear 33 0.6 25 -3.9 72 72 SSW 16 26 30.26 1025 10 16 0.00 0.00
6:53 pm 18:53 Clear 33 0.6 24 -4.4 70 70 SSW 20 31 30.27 1025 10 16 0.00 0.00
7:53 pm 19:53 Clear 32 0 24 -4.4 73 73 SW 15 24 30.29 1026 10 16 0.00 0.00
8:53 pm 20:53 Clear 31 -0.6 23 -5 72 72 SW 17 28 30.28 1025 10 16 0.00 0.00
9:53 pm 21:53 Clear 28 -2.2 22 -5.6 78 78 SSW 15 24 30.30 1026 10 16 0.00 0.00
10:53 pm 22:53 Clear 29 -1.7 23 -5 78 78 SSW 17 28 30.29 1026 10 16 0.00 0.00
11:53 pm 23:53 Clear 29 -1.7 22 -5.6 75 75 SSW 16 26 30.27 1025 10 16 0.00 0.00

Powered by AerisWeather